Weather History for Mansfield, OH

Change the Weather History Date:

Thursday, February 21, 2013

  Actual Average Record
Temperature  
Mean Temperature 21 °F 30 °F  
Max Temperature 23 °F 38 °F 68 °F (1930)
Min Temperature 18 °F 22 °F -5 °F (1963)
Degree Days  
Heating Degree Days 44 35  
Month to date heating degree days 831 786  
Since 1 July heating degree days 4143 4386  
Cooling Degree Days 0 0  
Month to date cooling degree days 0 0  
Year to date cooling degree days 0 0  
Moisture  
Dew Point 14 °F    
Average Humidity 78    
Maximum Humidity 84    
Minimum Humidity 71    
Precipitation  
Precipitation 0.04 in 0.09 in 0.71 in (1980)
Month to date precipitation 0.95 1.77  
Year to date precipitation 3.53 4.64  
Snow  
Snow 0.80 in 0.40 in - ()
Month to date snowfall 10.4 8.5  
Since 1 July snowfall 28.6 35.0  
Snow Depth 2.00 in    
Sea Level Pressure  
Sea Level Pressure 30.29 in    
Wind  
Wind Speed 8 mph (North)    
Max Wind Speed 15 mph    
Max Gust Speed 17 mph    
Visibility 8 miles    
Events Snow    
T = Trace of Precipitation, MM = Missing Value Source: NWS Daily Summary

Daily Weather History Graph

Daily Weather History Graph

Search for Another Location

Airport:

Trip Planner

Search our weather history database for the weather conditions in past years. The results will help you decide how hot, cold, wet, or windy it might be!

Date:

Astronomy

Feb. 21, 2013 Rise Set
Actual Time 7:15 AM EST 6:12 PM EST
Civil Twilight 6:47 AM EST 6:40 PM EST
Nautical Twilight 6:15 AM EST 7:12 PM EST
Astronomical Twilight 5:44 AM EST 7:43 PM EST
Moon 2:25 PM EST (2/21) 4:20 AM EST (2/21)
Length of Visible Light 11h 52m
Length of Day
10h 56m
Waxing Gibbous, 83% of the Moon is Illuminated
Feb 21
Waxing Gibbous
Feb 25
Full
Mar 4
Last Quarter
Mar 11
New
Mar 19
First Quarter

Hourly Weather History & Observations

Time (EST) Temp. Windchill Dew Point Humidity Pressure Visibility Wind Dir Wind Speed Gust Speed Precip Events Conditions
12:52 AM 18.0 °F 8.7 °F 14.0 °F 84% 30.25 in 8.0 mi West 6.9 mph - 0.00 in   Overcast
1:31 AM 17.6 °F 9.3 °F 14.0 °F 86% 30.20 in 9.0 mi West 5.8 mph - N/A   Overcast
1:52 AM 17.6 °F 7.3 °F 14.0 °F 86% 30.20 in 10.0 mi West 8.1 mph - N/A   Overcast
2:52 AM 18.0 °F 9.8 °F 14.0 °F 84% 30.27 in 7.0 mi West 5.8 mph - 0.00 in   Overcast
3:52 AM 19.0 °F 9.0 °F 15.1 °F 85% 30.26 in 10.0 mi West 8.1 mph - N/A   Overcast
4:52 AM 19.4 °F 9.5 °F 15.8 °F 86% 30.21 in 6.0 mi West 8.1 mph - N/A   Overcast
5:52 AM 19.0 °F 5.6 °F 15.1 °F 85% 30.30 in 8.0 mi WNW 13.8 mph - 0.00 in Snow Light Snow
6:01 AM 19.4 °F 9.5 °F 15.8 °F 86% 30.24 in 8.0 mi NW 8.1 mph - 0.00 in   Overcast
6:52 AM 19.0 °F 7.5 °F 14.0 °F 81% 30.31 in 8.0 mi NW 10.4 mph - 0.00 in   Overcast
7:52 AM 19.0 °F 8.2 °F 14.0 °F 81% 30.34 in 8.0 mi NW 9.2 mph - 0.00 in   Overcast
8:52 AM 19.0 °F 9.0 °F 14.0 °F 81% 30.36 in 5.0 mi NW 8.1 mph - 0.00 in Snow Light Snow
9:52 AM 19.9 °F 11.1 °F 14.0 °F 78% 30.36 in 5.0 mi NNW 6.9 mph - 0.00 in Snow Light Snow
10:52 AM 19.9 °F 13.4 °F 15.1 °F 81% 30.37 in 4.0 mi NNW 4.6 mph - 0.00 in Snow Light Snow
11:30 AM 21.2 °F 12.6 °F 15.8 °F 80% 30.30 in 2.0 mi NW 6.9 mph - 0.00 in Snow Light Snow
11:35 AM 21.2 °F 12.6 °F 15.8 °F 80% 30.30 in 4.0 mi North 6.9 mph - 0.00 in Snow Light Snow
11:52 AM 21.9 °F 17.2 °F 16.0 °F 78% 30.37 in 4.0 mi NW 3.5 mph - 0.00 in   Haze
12:52 PM 21.2 °F 13.6 °F 15.8 °F 80% 30.28 in 4.0 mi NNE 5.8 mph - N/A   Haze
1:52 PM 21.9 °F 14.5 °F 14.0 °F 72% 30.34 in 10.0 mi North 5.8 mph - N/A   Overcast
2:52 PM 21.9 °F 15.7 °F 14.0 °F 72% 30.32 in 10.0 mi North 4.6 mph - N/A   Overcast
3:52 PM 21.9 °F 10.4 °F 14.0 °F 72% 30.30 in 10.0 mi ENE 11.5 mph - N/A   Overcast
4:52 PM 21.9 °F 11.0 °F 14.0 °F 72% 30.32 in 10.0 mi ENE 10.4 mph - N/A   Scattered Clouds
5:11 PM 21.2 °F 9.5 °F 14.0 °F 74% 30.26 in 10.0 mi NE 11.5 mph - N/A   Mostly Cloudy
5:52 PM 21.0 °F 10.6 °F 14.0 °F 74% 30.34 in 10.0 mi NE 9.2 mph - N/A   Overcast
6:52 PM 19.9 °F 11.1 °F 14.0 °F 78% 30.34 in 10.0 mi ENE 6.9 mph - N/A   Overcast
7:33 PM 19.4 °F 8.6 °F 14.0 °F 80% 30.26 in 10.0 mi NE 9.2 mph - N/A   Scattered Clouds
7:52 PM 19.0 °F 8.2 °F 14.0 °F 81% 30.32 in 10.0 mi NE 9.2 mph - N/A   Clear
8:52 PM 19.9 °F 11.1 °F 12.9 °F 74% 30.29 in 10.0 mi East 6.9 mph - N/A   Clear
9:52 PM 19.9 °F 11.1 °F 14.0 °F 78% 30.27 in 10.0 mi East 6.9 mph - N/A   Clear
10:52 PM 21.0 °F 9.9 °F 14.0 °F 74% 30.27 in 10.0 mi East 10.4 mph - N/A   Clear
11:52 PM 21.0 °F 10.6 °F 15.1 °F 78% 30.25 in 10.0 mi East 9.2 mph - N/A   Clear